Winona, MN

2:25 AM CDT on September 19, 2019 (GMT -0500)
Winona Municipal-Conrad

Weather History for KONA - July, 2019

Change the Weather History Date:

Saturday, July 13, 2019

  Actual Average Record
Temperature  
Mean Temperature 76 °F -  
Max Temperature 82 °F 84 °F 96 °F (1976)
Min Temperature 69 °F 64 °F 53 °F (2001)
Cooling Degree Days 10    
Growing Degree Days 26 (Base 50)    
Moisture  
Dew Point 66 °F    
Average Humidity 72    
Maximum Humidity 100    
Minimum Humidity 48    
Precipitation  
Precipitation 0.00 in - - ()
Sea Level Pressure  
Sea Level Pressure 30.00 in    
Wind  
Wind Speed 1 mph (NE)    
Max Wind Speed 7 mph    
Max Gust Speed -    
Visibility 10 miles    
Events      
Averages and records for this station are not official NWS values.
T = Trace of Precipitation, MM = Missing Value Source: NWS Daily Summary

Daily Weather History Graph

Daily Weather History Graph

Search for Another Location

Airport or City:

Astronomy

Jul. 13, 2019 Rise Set
Actual Time 5:35 AM CDT 8:48 PM CDT
Civil Twilight 5:00 AM CDT 9:24 PM CDT
Nautical Twilight 4:14 AM CDT 10:09 PM CDT
Astronomical Twilight 3:18 AM CDT 11:05 PM CDT
Moon 6:11 PM CDT (7/13) 2:58 AM CDT (7/13)
Length of Visible Light 16h 23m
Length of Day
15h 13m
Waxing Gibbous, 90% of the Moon is Illuminated
Jul 13
Waxing Gibbous
Jul 16
Full
Jul 24
Last Quarter
Jul 31
New
Aug 7
First Quarter

Hourly Weather History & Observations

Time (CDT) Temp. Heat Index Dew Point Humidity Pressure Visibility Wind Dir Wind Speed Gust Speed Precip Events Conditions
12:55 AM 75.2 °F - 69.8 °F 83% 29.90 in 10.0 mi Calm Calm - N/A   Clear
1:55 AM 75.2 °F - 71.6 °F 89% 29.90 in 10.0 mi West 3.5 mph - N/A   Clear
2:55 AM 73.4 °F - 69.8 °F 88% 29.91 in 10.0 mi Calm Calm - N/A   Clear
3:55 AM 69.8 °F - 68.0 °F 94% 29.93 in 10.0 mi Calm Calm - N/A   Clear
4:55 AM 69.8 °F - 69.8 °F 100% 29.94 in 10.0 mi Calm Calm - N/A   Clear
5:55 AM 69.8 °F - 68.0 °F 94% 29.96 in 10.0 mi Calm Calm - N/A   Clear
6:55 AM 69.8 °F - 68.0 °F 94% 29.97 in 10.0 mi Calm Calm - N/A   Clear
7:55 AM 75.2 °F - 68.0 °F 78% 30.00 in 10.0 mi WNW 3.5 mph - N/A   Clear
8:55 AM 77.0 °F - 64.4 °F 65% 30.03 in 10.0 mi NE 3.5 mph - N/A   Clear
9:55 AM 77.0 °F - 62.6 °F 61% 30.04 in 10.0 mi Calm Calm - N/A   Clear
10:55 AM 77.0 °F - 62.6 °F 61% 30.07 in 10.0 mi Calm Calm - N/A   Clear
11:55 AM 77.0 °F - 64.4 °F 65% 30.06 in 10.0 mi Calm Calm - N/A   Clear
12:55 PM 80.6 °F 82.3 °F 64.4 °F 58% 30.01 in 10.0 mi Calm Calm - N/A   Clear
1:55 PM 82.4 °F 83.4 °F 62.6 °F 51% 29.99 in 10.0 mi ENE 6.9 mph - N/A   Clear
2:55 PM 82.4 °F 82.9 °F 60.8 °F 48% 30.01 in 10.0 mi Calm Calm - N/A   Clear
3:55 PM 82.4 °F 82.9 °F 60.8 °F 48% 30.03 in 10.0 mi ESE 4.6 mph - N/A   Clear
4:55 PM 82.4 °F 82.9 °F 60.8 °F 48% 30.03 in 10.0 mi Calm Calm - N/A   Clear
5:55 PM 82.4 °F 82.9 °F 60.8 °F 48% 30.03 in 10.0 mi Calm Calm - N/A   Clear
6:55 PM 80.6 °F 82.7 °F 66.2 °F 61% 30.03 in 10.0 mi NE 3.5 mph - N/A   Clear
7:55 PM 78.8 °F - 66.2 °F 65% 30.04 in 10.0 mi Calm Calm - N/A   Clear
8:55 PM 77.0 °F - 68.0 °F 74% 30.04 in 10.0 mi Calm Calm - N/A   Clear
9:55 PM 75.2 °F - 68.0 °F 78% 30.05 in 10.0 mi Calm Calm - N/A   Clear
10:55 PM 69.8 °F - 68.0 °F 94% 30.05 in 10.0 mi Calm Calm - N/A   Clear
11:55 PM 69.8 °F - 66.2 °F 88% 30.06 in 10.0 mi Calm Calm - N/A   Clear